Tracking 31027 objects as of 19-Jul-2025
HD Live streaming from Space Station
objects crossing your sky now

THORAD DELTA 1 DEB

Track THORAD DELTA 1 DEB now!
10-day predictions


NORAD ID: 8566
Int'l Code: 1974-089DD
Perigee: 1,333.6 km
Apogee: 1,468.5 km
Inclination: 101.4 °
Period: 113.6 minutes
Semi major axis: 7772 km
RCS: 0.0546 m2 (small)
Launch date: November 15, 1974
Source: United States (US)
Launch site: AIR FORCE WESTERN TEST RANGE (AFWTR)

Note: This is SATELLITE DEBRIS
Your satellite tracking list
DEWASAT-2
Track 1 satellite(s)




NASA's NSSDC Master Catalog

Two Line Element Set (TLE):
1 08566U 74089DD  25198.70894670  .00000036  00000-0  41574-3 0  9992
2 08566 101.3959 276.3278 0086747  17.9336 133.7467 12.67066453256498
Source of the keplerian elements: AFSPC